TimeEST,TemperatureF,Dew PointF,Humidity,Sea Level PressureIn,VisibilityMPH,Wind Direction,Wind SpeedMPH,Gust SpeedMPH,PrecipitationIn,Events,Conditions,WindDirDegrees,DateUTC
12:54 AM,30.9,25.0,79,29.64,10.0,WNW,17.3,27.6,N/A,,Overcast,300,2012-12-28 05:54:00
1:54 AM,30.9,24.1,76,29.68,10.0,NW,12.7,24.2,N/A,,Overcast,310,2012-12-28 06:54:00
2:54 AM,30.0,21.9,72,29.71,10.0,NW,18.4,24.2,N/A,,Overcast,310,2012-12-28 07:54:00
3:54 AM,28.9,21.0,72,29.74,10.0,NW,16.1,28.8,N/A,,Overcast,310,2012-12-28 08:54:00
4:54 AM,28.0,19.9,72,29.77,10.0,WNW,21.9,28.8,N/A,,Mostly Cloudy,300,2012-12-28 09:54:00
5:54 AM,28.0,19.0,69,29.80,10.0,NW,13.8,24.2,N/A,,Scattered Clouds,310,2012-12-28 10:54:00
6:54 AM,28.0,18.0,66,29.82,10.0,WNW,16.1,25.3,N/A,,Scattered Clouds,300,2012-12-28 11:54:00
7:54 AM,28.9,17.1,61,29.85,10.0,WNW,15.0,26.5,N/A,,Scattered Clouds,290,2012-12-28 12:54:00
8:54 AM,30.0,18.0,61,29.89,10.0,WNW,15.0,24.2,N/A,,Scattered Clouds,300,2012-12-28 13:54:00
9:54 AM,30.9,19.0,61,29.90,10.0,NW,16.1,25.3,N/A,,Scattered Clouds,310,2012-12-28 14:54:00
10:54 AM,33.1,19.0,56,29.90,10.0,WNW,17.3,28.8,N/A,,Scattered Clouds,300,2012-12-28 15:54:00
11:54 AM,35.1,19.9,54,29.89,10.0,WNW,16.1,24.2,N/A,,Scattered Clouds,300,2012-12-28 16:54:00
12:54 PM,36.0,21.0,55,29.89,10.0,NW,16.1,25.3,N/A,,Scattered Clouds,310,2012-12-28 17:54:00
1:54 PM,36.0,21.0,55,29.90,10.0,WNW,16.1,-,N/A,,Partly Cloudy,300,2012-12-28 18:54:00
2:54 PM,37.0,21.9,54,29.92,10.0,NW,11.5,-,N/A,,Partly Cloudy,310,2012-12-28 19:54:00
3:54 PM,35.1,21.0,57,29.93,10.0,WNW,13.8,20.7,N/A,,Scattered Clouds,300,2012-12-28 20:54:00
4:54 PM,34.0,21.0,59,29.96,10.0,WNW,13.8,19.6,N/A,,Scattered Clouds,290,2012-12-28 21:54:00
5:54 PM,34.0,21.0,59,29.98,10.0,WNW,15.0,19.6,N/A,,Partly Cloudy,290,2012-12-28 22:54:00
6:54 PM,33.1,21.9,64,30.00,10.0,West,11.5,-,N/A,,Scattered Clouds,270,2012-12-28 23:54:00
7:54 PM,33.1,21.9,64,30.00,10.0,West,12.7,18.4,N/A,,Scattered Clouds,280,2012-12-29 00:54:00
8:54 PM,32.0,21.9,66,30.01,10.0,West,5.8,-,N/A,,Mostly Cloudy,280,2012-12-29 01:54:00
9:54 PM,30.9,21.9,69,30.00,10.0,West,8.1,-,N/A,,Scattered Clouds,280,2012-12-29 02:54:00
10:54 PM,30.9,21.9,69,30.01,10.0,West,8.1,-,N/A,,Scattered Clouds,280,2012-12-29 03:54:00
11:54 PM,30.9,21.9,69,30.01,10.0,WNW,5.8,-,N/A,,Scattered Clouds,290,2012-12-29 04:54:00